Weather Roundup
Issued by NWS

Home | Current Version | Previous Version | Text Only | Print | Product List | Glossary On
Versions: 1 2 3 4 5 6 7 8 9 10 11 12 13 14 15 16 17 18 19 20 21 22 23 24 25 26 27 28 29 30 31 32 33 34 35 36 37 38 39 40 41 42 43 44 45 46 47 48 49 50
620
NZUS93 KARX 201759
HRRWXR

CURRENT HOURLY OBSERVATIONS ACROSS
MUCH OF THE UPPER MISSISSIPPI VALLEY
NATIONAL WEATHER SERVICE LA CROSSE WI
100 PM CDT SUN MAY 20 2018


...SOUTHEAST MINNESOTA...


CITY           SKY/WX    TMP DP  RH WIND       PRES   REMARKS
ROCHESTER      CLOUDY    52  47  83 NE13      30.22F
ROCHESTER/MAYO CLOUDY    54  43  67 E7        30.22F
WINONA         CLOUDY    54  45  71 SE5       30.21F
AUSTIN         CLOUDY    54  46  76 E12G17    30.20S
ALBERT LEA     CLOUDY    54  43  66 E9        30.21S
DODGE CENTER   CLOUDY    54  43  66 E9        30.21F
PRESTON        CLOUDY    48  45  90 E9        30.22F
OWATONNA       FAIR      55  46  71 E8        30.22F
FARIBAULT      CLOUDY    59  46  63 CALM      30.22F
$$

...ELSEWHERE IN MINNESOTA...


CITY           SKY/WX    TMP DP  RH WIND       PRES   REMARKS
MINNEAPOLIS    FAIR      64  38  38 VRB7      30.23F
INTNL FALLS    FAIR      69  29  22 NW7       30.22F
DULUTH         FAIR      64  29  26 VRB6      30.27F
RED WING       FAIR      63  39  42 CALM      30.21F
REDWOOD FALLS  SUNNY     66  41  40 E12G18    30.20F
MANKATO        CLOUDY    56  44  64 E8        30.22F
WORTHINGTON      N/A     53  42  66 NE14      30.19F
FAIRMONT       CLOUDY    59  46  62 NE9       30.19F
$$

...SOUTHWEST WISCONSIN...


CITY           SKY/WX    TMP DP  RH WIND       PRES   REMARKS
LA CROSSE      CLOUDY    52  48  86 NE7       30.23F
PRAIRIE DU CHI CLOUDY    53  49  86 NE9       30.22R
BOSCOBEL       CLOUDY    55  49  80 E7        30.22S
LONE ROCK      CLOUDY    54  49  83 E8        30.23S
PLATTEVILLE    CLOUDY    52  52  99 NE12      30.21R
FORT MC COY    CLOUDY    52  46  80 E5        30.25S
MAUSTON-NEW LI CLOUDY    51  46  82 NE5       30.24S HAZE
VIROQUA        CLOUDY    49  48  94 E9        30.23S
WIS DELLS      CLOUDY    51  45  78 E7        30.24S
$$

...ELSEWHERE IN WISCONSIN...


CITY           SKY/WX    TMP DP  RH WIND       PRES   REMARKS
MILWAUKEE      CLOUDY    47  42  83 NE17G26   30.25R
MADISON        CLOUDY    52  47  83 NE7       30.22F
GREEN BAY      FAIR      57  30  35 NE17      30.25F
EAU CLAIRE     NOT AVBL
BLACK RVR FLS  CLOUDY    61  40  46 SE3       30.24R
MEDFORD        FAIR      60  30  33 NE7       30.24F
WAUSAU         FAIR      63  28  26 E6        30.22F
WIS RAPIDS     FAIR      64  41  42 MISG      30.23F
MARSHFIELD     FAIR      63  41  44 E10       30.22F
RICE LAKE      FAIR      63  24  23 E9        30.26F
$$

...NORTHEAST IOWA...


CITY           SKY/WX    TMP DP  RH WIND       PRES   REMARKS
WATERLOO       CLOUDY    57  53  86 NE12      30.16S
DUBUQUE        CLOUDY    53  50  89 NE9       30.19R
DECORAH        CLOUDY    54  50  87 NE8       30.19F
MASON CITY     CLOUDY    54  48  80 E15       30.20S
CHARLES CITY   CLOUDY    55  50  82 NE10      30.19S
OELWEIN        CLOUDY    57  54  88 E13       30.18S
$$

...ELSEWHERE IN IOWA...


CITY           SKY/WX    TMP DP  RH WIND       PRES   REMARKS
DES MOINES     CLOUDY    65  57  75 N8        30.12F
IOWA CITY      CLOUDY    63  55  75 E8        30.15F
FORT DODGE     CLOUDY    57  52  83 E9        30.18R
MARSHALLTOWN   CLOUDY    60  59  96 E10       30.14S
CEDAR RAPIDS   CLOUDY    57  55  93 E14       30.14F
$$

...NORTHERN ILLINOIS...


CITY           SKY/WX    TMP DP  RH WIND       PRES   REMARKS
CHICAGO-OHARE  CLOUDY    46  43  89 N14       30.21R
CHICAGO-MIDWAY CLOUDY    50  47  89 N10       30.20F
MOLINE         CLOUDY    64  53  67 E12       30.15R
ROCKFORD       CLOUDY    54  49  83 NE12      30.20F
PEORIA         FAIR      76  63  64 E5        30.14R
$$

NOTE: "FAIR" INDICATES FEW OR NO CLOUDS BELOW 12,000 FEET WITH NO
SIGNIFICANT WEATHER AND/OR OBSTRUCTIONS TO VISIBILITY. WIND
SPEEDS ARE IN MILES-PER-HOUR.




USA.gov is the U.S. government's official web portal to all federal, state and local government web resources and services.